Location: Treviso
(45.6669°N, 12.2430°E)
Time: 23:11:33
(UTC+01:00)

ISS - Pass Details

Date: 13 November 2018
Orbit: 402 x 409 km, 51.6° (Epoch: 14 November)

Event Time Altitude Azimuth Distance (km) Brightness Sun altitude
Exits shadow 05:02:01 50° 135° (SE) 525 -3.1 -21.9°
Drops below altitude 10° 05:04:33 10° 124° (SE) 1,458 -0.2 -21.5°
Sets 05:06:37 0° 123° (ESE) 2,316 1.0 -21.1°
